カタログに戻る

COSMOS 2251 DEB

運用中LEO
NORAD 34588·DEBRIS·🇷🇺 Russia

打ち上げ Jun 16, 1993 から Plesetsk Cosmodrome

Loading…

次のパス (今後24時間)

TLE

最新Source: Space-Track

元期: Sep 14, 2026, 09:05 UTC

1 34588U 93036WA  26257.37902009  .00000699  00000-0  21759-3 0  9992
2 34588  74.0415 117.1818 0017894 107.9422  66.8741 14.42675932919242

AllMySatでCOSMOS 2251 DEBをリアルタイム追跡

Download on the App Store